Flag for U.S.A. Weather past 2 weeks in Springfield, Illinois, U.S.A.

Now
91 °F

Sunny.


Feels Like: 94 °F
Forecast: 72 / 91 °F
Wind: 12 mph from Southwest

Location: Capital Airport

Current Time: Sep 2, 2015 at 5:30:13 PM

Latest Report: Sep 2, 2015 at 3:52 PM


Visibility: 10 mi

Pressure: 29.97 "Hg

Humidity: 44%

Dew point: 66 °F

Location of SpringfieldLocation

Historic Weather in Springfield — Graph

°F

Springfield temperature yesterday

Maximum temperature yesterday: 93 °F (at 3:52 PM)
Minimum temperature yesterday: 73 °F (at 5:52 AM)
Average temperature yesterday: 82 °F

Past Weeks' High & Low Weather Summary

 TemperatureHumidityPressure
High93 °F (Sep 1, 3:52 PM)97% (Aug 23, 7:52 AM)30.21 "Hg (Aug 23, 7:52 AM)
Low49 °F (Aug 25, 6:52 AM)37% (Aug 24, 4:52 PM)29.69 "Hg (Aug 19, 3:01 AM)
Average71 °F73%30.02 "Hg
* Reported Aug 18 3:52 PM — Sep 2 3:52 PM, Springfield, Weather by CustomWeather, © 2015

Note: Actual official high and low records may vary slightly from our data, if they occured in-between our weather recording intervals... More about our weather records

Advertising

Springfield weather history for previous 24 hours

 ConditionsComfort  
Time TempWeatherWind HumidityBarometerVisibility
3:52 PM
Wed, Sep 2
91 °FSunny.12 mph44%29.97 "Hg10 mi
2:52 PM91 °FSunny.12 mph47%29.99 "Hg10 mi
1:52 PM90 °FScattered clouds.6 mph47%30.01 "Hg10 mi
12:52 PM92 °FSunny.6 mph46%30.03 "Hg10 mi
11:52 AM90 °FSunny.10 mph50%30.05 "Hg10 mi
10:52 AM87 °FSunny.8 mph55%30.07 "Hg10 mi
9:52 AM84 °FSunny.10 mph63%30.09 "Hg10 mi
8:52 AM79 °FSunny.6 mph74%30.09 "Hg10 mi
7:52 AM76 °FSunny.7 mph82%30.09 "Hg10 mi
6:52 AM72 °FClear.5 mph91%30.07 "Hg10 mi
5:52 AM72 °FClear.3 mph87%30.06 "Hg10 mi
4:52 AM72 °FClear.5 mph91%30.05 "Hg10 mi
3:52 AM74 °FClear.5 mph85%30.03 "Hg10 mi
2:52 AM75 °FClear.7 mph85%30.03 "Hg10 mi
1:52 AM75 °FClear.8 mph85%30.04 "Hg10 mi
12:52 AM76 °FClear.8 mph82%30.04 "Hg10 mi
11:52 PM
Tue, Sep 1
79 °FClear.10 mph74%30.05 "Hg10 mi
10:52 PM77 °FClear.8 mph79%30.05 "Hg10 mi
9:52 PM77 °FClear.7 mph79%30.05 "Hg10 mi
8:52 PM78 °FClear.6 mph74%30.04 "Hg10 mi
7:52 PM82 °FSunny.6 mph65%30.02 "Hg10 mi
6:52 PM87 °FSunny.6 mph55%30.01 "Hg10 mi
5:52 PM90 °FSunny.8 mph50%30.01 "Hg10 mi
Weather by CustomWeather, © 2015

See weather overviewHow to use our weather pages